EDT,Max TemperatureF,Mean TemperatureF,Min TemperatureF,Max Dew PointF,MeanDew PointF,Min DewpointF,Max Humidity, Mean Humidity, Min Humidity, Max Sea Level PressureIn, Mean Sea Level PressureIn, Min Sea Level PressureIn, Max VisibilityMiles, Mean VisibilityMiles, Min VisibilityMiles, Max Wind SpeedMPH, Mean Wind SpeedMPH, Max Gust SpeedMPH,PrecipitationIn, CloudCover, Events, WindDirDegrees
2012-9-1,80,75,71,72,68,64,94,79,64,30.12,30.06,30.03,10,9,1,12,7,,0.00,3,Rain,32
2012-9-2,79,75,71,72,69,63,96,87,69,30.06,30.00,29.94,10,8,1,12,5,,0.20,6,Rain,81
2012-9-3,81,74,68,74,69,64,94,84,71,29.95,29.92,29.87,10,8,2,12,4,22,0.01,2,Rain,91
2012-9-4,78,74,70,72,70,66,94,89,78,29.91,29.85,29.81,10,9,2,13,7,,0.03,7,Rain,299
2012-9-5,82,72,64,72,66,63,100,84,58,29.91,29.86,29.80,10,8,0,9,5,,0.00,1,Fog,127
2012-9-6,79,74,69,71,68,66,90,81,73,29.90,29.87,29.82,10,9,5,10,6,,0.00,0,,253
2012-9-7,80,74,68,68,65,61,87,74,62,29.89,29.83,29.66,10,9,2,14,6,22,0.05,2,Rain-Thunderstorm,177
2012-9-8,70,66,61,66,61,50,100,84,54,29.84,29.66,29.51,10,6,2,28,14,38,1.94,8,Rain-Thunderstorm,276
2012-9-9,70,63,57,57,51,43,87,63,46,30.07,29.94,29.83,10,10,10,18,8,24,0.00,5,,321
2012-9-10,69,64,57,51,47,44,72,55,43,30.21,30.16,30.08,10,10,10,13,9,20,0.00,1,,352
2012-9-11,78,66,54,58,49,46,77,58,37,30.27,30.22,30.19,10,10,9,12,9,,0.00,1,,175
2012-9-12,80,69,59,61,54,49,69,56,40,30.28,30.23,30.19,10,10,10,10,9,,0.00,2,,166
2012-9-13,80,73,66,65,59,56,73,63,52,30.28,30.23,30.18,10,10,7,9,7,,0.00,3,,146
2012-9-14,73,65,57,66,57,52,94,81,61,30.26,30.21,30.15,10,8,2,21,7,30,0.21,5,Rain,319
2012-9-15,69,61,54,54,49,43,88,66,40,30.29,30.24,30.18,10,10,10,10,6,,0.00,0,,215
2012-9-16,73,62,52,53,48,44,74,60,42,30.18,30.12,30.05,10,10,10,12,7,,0.00,0,,178
2012-9-17,75,65,55,54,49,46,69,54,40,30.05,29.93,29.76,10,10,10,13,9,16,0.00,1,,162
2012-9-18,66,62,57,63,58,41,94,84,51,29.91,29.65,29.56,10,6,1,26,13,33,0.72,8,Rain,269
2012-9-19,63,56,48,41,39,37,74,53,41,30.15,30.08,29.94,10,10,10,21,13,31,0.00,2,,232
2012-9-20,73,62,51,50,44,38,61,51,41,30.07,29.96,29.87,10,10,10,18,11,28,0.00,4,,181
2012-9-21,69,62,55,54,49,41,87,62,37,29.96,29.90,29.80,10,10,3,14,9,26,0.39,4,Rain,224
2012-9-22,63,56,50,54,51,43,97,85,62,30.06,29.84,29.70,10,8,1,30,10,38,0.72,7,Rain-Hail-Thunderstorm,252
2012-9-23,57,50,46,48,45,40,93,81,61,30.20,30.15,30.06,10,8,3,24,10,30,0.58,8,Rain-Thunderstorm,231
2012-9-24,62,54,46,45,40,33,93,66,34,30.24,30.15,30.01,10,8,1,14,8,22,0.54,4,Rain-Thunderstorm,204
2012-9-25,69,58,50,56,47,37,88,66,49,30.03,29.98,29.92,10,10,5,15,12,25,0.10,5,Rain,178
2012-9-26,66,64,61,63,60,54,94,88,75,30.12,29.99,29.91,10,8,2,15,10,24,0.61,8,Rain,209
2012-9-27,62,58,55,54,49,44,78,70,55,30.21,30.16,30.12,10,10,10,13,7,,0.00,6,,66
2012-9-28,64,58,51,49,46,41,86,66,45,30.15,30.12,30.08,10,10,9,9,4,,0.00,0,,63
2012-9-29,64,57,50,54,48,42,83,72,62,30.09,30.01,29.92,10,10,6,10,5,,0.00,2,,213
2012-9-30,62,56,50,51,47,43,83,73,58,29.94,29.90,29.87,10,10,4,13,6,,0.09,3,Rain,79